2023/09/20 00:00:00, 0.2,21.4
2023/09/20 00:10:00, 0.2,21.6
2023/09/20 00:20:00, 0.2,21.8
2023/09/20 00:30:00, 1.3,21.4
2023/09/20 00:40:00, 0.2,21.5
2023/09/20 00:50:00, 0.2,21.4
2023/09/20 01:00:00, 1.2,21.3
2023/09/20 01:10:00,13.1,21.3
2023/09/20 01:20:00,12.2,21.4
2023/09/20 01:30:00,11.3,21.3
2023/09/20 01:40:00,11.0,21.3
2023/09/20 01:50:00,10.9,21.1
2023/09/20 02:00:00,11.1,21.2
2023/09/20 02:10:00,11.1,21.0
2023/09/20 02:20:00,11.3,21.3
2023/09/20 02:30:00,10.8,21.1
2023/09/20 02:40:00, 3.9,21.1
2023/09/20 02:50:00, 3.2,20.9
2023/09/20 03:00:00, 3.1,20.8
2023/09/20 03:10:00, 2.9,20.7
2023/09/20 03:20:00, 2.9,20.8
2023/09/20 03:30:00, 3.4,20.8
2023/09/20 03:40:00, 2.8,20.4
2023/09/20 03:50:00, 2.7,20.7
2023/09/20 04:00:00, 2.6,20.5
2023/09/20 04:10:00, 2.8,20.6
2023/09/20 04:20:00,12.8,20.5
2023/09/20 04:30:00,13.6,20.4
2023/09/20 04:40:00,13.4,20.7
2023/09/20 04:50:00,13.3,20.5
2023/09/20 05:00:00,13.1,20.4
2023/09/20 05:10:00,12.7,20.4
2023/09/20 05:20:00,12.4,20.5
2023/09/20 05:30:00,12.2,20.4
2023/09/20 05:40:00,11.7,20.5
2023/09/20 05:50:00,11.1,20.7
2023/09/20 06:00:00,10.7,20.5
2023/09/20 06:10:00,10.6,20.6
2023/09/20 06:20:00,10.6,20.7
2023/09/20 06:30:00,10.6,20.8
2023/09/20 06:40:00,11.0,20.7
2023/09/20 06:50:00,11.1,20.8
2023/09/20 07:00:00,11.5,20.9
2023/09/20 07:10:00,11.9,21.1
2023/09/20 07:20:00,12.0,21.2
2023/09/20 07:30:00, 9.0,21.4
2023/09/20 07:40:00,11.4,21.6
2023/09/20 07:50:00,11.1,21.8
2023/09/20 08:00:00,11.1,22.3
2023/09/20 08:10:00,12.4,22.0
2023/09/20 08:20:00,12.5,22.4
2023/09/20 08:30:00,12.5,22.6
2023/09/20 08:40:00,12.4,23.1
2023/09/20 08:50:00,12.5,23.6
2023/09/20 09:00:00, 9.1,23.8
2023/09/20 09:10:00, 2.7,24.0
2023/09/20 09:20:00, 2.6,24.4
2023/09/20 09:30:00, 2.5,24.7
2023/09/20 09:40:00, 2.3,25.6
2023/09/20 09:50:00, 2.4,25.4
2023/09/20 10:00:00, 2.3,25.6
2023/09/20 10:10:00, 2.4,26.2
2023/09/20 10:20:00, 3.2,27.2
2023/09/20 10:30:00, 3.8,26.9
2023/09/20 10:40:00, 2.3,27.4
2023/09/20 10:50:00, 2.5,27.0
2023/09/20 11:00:00, 3.1,26.7
2023/09/20 11:10:00, 4.4,27.1
2023/09/20 11:20:00, 2.7,27.1
2023/09/20 11:30:00, 2.6,27.5
2023/09/20 11:40:00, 3.7,27.6
2023/09/20 11:50:00, 4.1,27.5
2023/09/20 12:00:00, 2.7,27.1
2023/09/20 12:10:00, 2.8,27.2
2023/09/20 12:20:00, 6.4,27.0
2023/09/20 12:30:00, 4.1,27.2
2023/09/20 12:40:00, 2.6,27.2
2023/09/20 12:50:00, 2.8,26.8
2023/09/20 13:00:00, 3.4,26.9
2023/09/20 13:10:00, 2.7,27.1
2023/09/20 13:20:00, 2.8,27.6
2023/09/20 13:30:00, 2.9,27.3
2023/09/20 13:40:00, 2.9,26.2
2023/09/20 13:50:00, 2.9,26.1
2023/09/20 14:00:00, 4.3,26.1
2023/09/20 14:10:00, 7.3,25.9
2023/09/20 14:20:00,11.6,25.7
2023/09/20 14:30:00,11.7,25.9
2023/09/20 14:40:00,11.9,26.0
2023/09/20 14:50:00,12.0,25.5
2023/09/20 15:00:00,11.9,25.6
2023/09/20 15:10:00, 9.1,25.8
2023/09/20 15:20:00, 3.6,25.8
2023/09/20 15:30:00, 2.6,26.0
2023/09/20 15:40:00, 4.5,25.8
2023/09/20 15:50:00, 3.4,25.6
2023/09/20 16:00:00, 2.6,25.8
2023/09/20 16:10:00, 3.4,25.8
2023/09/20 16:20:00, 7.8,25.4
2023/09/20 16:30:00,12.1,25.0
2023/09/20 16:40:00,12.0,24.7
2023/09/20 16:50:00,11.9,24.5
2023/09/20 17:00:00,10.8,24.2
2023/09/20 17:10:00,10.3,24.1
2023/09/20 17:20:00, 9.0,24.3
2023/09/20 17:30:00, 6.7,24.0
2023/09/20 17:40:00,11.5,23.5
2023/09/20 17:50:00,11.8,23.5
2023/09/20 18:00:00,11.9,23.3
2023/09/20 18:10:00,11.8,23.1
2023/09/20 18:20:00,11.6,22.9
2023/09/20 18:30:00,11.5,22.6
2023/09/20 18:40:00,11.4,22.8
2023/09/20 18:50:00,11.3,22.6
2023/09/20 19:00:00,11.3,22.6
2023/09/20 19:10:00,11.1,22.4
2023/09/20 19:20:00,10.9,22.3
2023/09/20 19:30:00,10.7,22.5
2023/09/20 19:40:00,10.6,22.4
2023/09/20 19:50:00,10.6,22.3
2023/09/20 20:00:00,10.5,22.3
2023/09/20 20:10:00,10.4,22.4
2023/09/20 20:20:00,10.3,22.3
2023/09/20 20:30:00,10.1,22.2
2023/09/20 20:40:00, 9.6,22.3
2023/09/20 20:50:00, 6.8,21.9
2023/09/20 21:00:00, 3.9,22.1
2023/09/20 21:10:00, 3.1,22.2
2023/09/20 21:20:00, 3.1,22.2
2023/09/20 21:30:00, 3.5,22.1
2023/09/20 21:40:00, 8.1,22.0
2023/09/20 21:50:00, 7.0,22.1
2023/09/20 22:00:00, 9.4,22.1
2023/09/20 22:10:00,10.5,22.0
2023/09/20 22:20:00,10.9,21.9
2023/09/20 22:30:00,11.4,22.1
2023/09/20 22:40:00,11.5,21.9
2023/09/20 22:50:00, 4.0,21.9
2023/09/20 23:00:00, 3.0,22.0
2023/09/20 23:10:00, 6.0,22.1
2023/09/20 23:20:00, 3.8,22.2
2023/09/20 23:30:00, 2.9,21.9
2023/09/20 23:40:00, 2.9,22.7
2023/09/20 23:50:00, 2.8,23.2
